Location: Siratepeler Tepesi
(39.1042°N, 32.0781°E)
Time: 00:35:19
(UTC+00:00)

Aureole 2 - Pass Details

Date: 11 April 2026
Orbit: 298 x 440 km, 73.9° (Epoch: 11 May)

Event Time Altitude Azimuth Distance (km) Brightness Sun altitude
Rises 17:16:38 0° 342° (NNW) 2,484 8.7 -10.5°
Reaches altitude 10° 17:18:46 10° 344° (NNW) 1,597 7.7 -10.8°
Maximum altitude 17:22:18 76° 71° (ENE) 463 4.3 -11.5°
Enters shadow 17:25:31 11° 157° (SSE) 1,464 6.6 -12.1°
